Location: Barletta
(41.3170°N, 16.2830°E)
Time: 03:32:03
(UTC+02:00)

ISS - Pass Details

Date: 11 May 2021
Orbit: 417 x 422 km, 51.6° (Epoch: 14 June)

Event Time Altitude Azimuth Distance (km) Brightness Sun altitude
Exits shadow 02:03:37 16° 348° (NNW) 1,216 -0.8 -28.5°
Maximum altitude 02:03:47 16° 351° (N) 1,214 -0.8 -28.5°
Drops below altitude 10° 02:05:55 10° 30° (NNE) 1,508 0.0 -28.3°
Sets 02:08:40 0° 54° (NE) 2,375 0.9 -28.1°
